IR1ZYZ-3 Weather Reports


time (UTC)temp
C
wind
direction
speed
KPH
gust
KPH
rain 1hr
cm
rain 24hr
cm
rain mn
cm
humidity
%
barometer
mb
20260507122942 27 0.0 0.0 0.00 0.00 0.00 55 1013.5
20260507121936 28 0.0 0.0 0.00 0.00 0.00 61 1013.3
20260507120931 27 0.0 0.0 0.00 0.00 0.00 58 1013.3
20260507115926 26 0.0 0.0 0.00 0.00 0.00 62 1013.5
20260507114921 25 0.0 0.0 0.00 0.00 0.00 62 1013.5
20260507113916 26 0.0 0.0 0.00 0.00 0.00 62 1013.5
20260507112911 26 0.0 0.0 0.00 0.00 0.00 66 1013.4
20260507111905 25 0.0 0.0 0.00 0.00 0.00 70 1013.8
20260507110900 25 0.0 0.0 0.00 0.00 0.00 73 1013.9
20260507110859 25 0.0 0.0 0.00 0.00 0.00 73 1013.9
20260507105854 25 0.0 0.0 0.00 0.00 0.00 70 1013.8
20260507104849 24 0.0 0.0 0.00 0.00 0.00 74 1013.9
20260507103844 24 0.0 0.0 0.00 0.00 0.00 75 1014.1
20260507102839 22 0.0 0.0 0.00 0.00 0.00 77 1014.1
20260507101833 22 0.0 0.0 0.00 0.00 0.00 85 1014.1
20260507100828 22 0.0 0.0 0.00 0.00 0.00 84 1014.2
20260507095823 21 0.0 0.0 0.00 0.00 0.00 84 1014.4
20260507093812 21 0.0 0.0 0.00 0.00 0.00 99 1014.3
20260507092807 21 0.0 0.0 0.00 0.00 0.00 94 1014.2
20260507091802 20 0.0 0.0 0.00 0.00 0.00 98 1014.3
20260507090757 20 0.0 0.0 0.00 0.00 0.00 10 1014.2
20260507085752 19 0.0 0.0 0.00 0.00 0.00 10 1014.2
20260507084747 20 0.0 0.0 0.00 0.00 0.00 10 1014.0
20260507083742 19 0.0 0.0 0.00 0.00 0.00 10 1013.9
20260507082737 18 0.0 0.0 0.00 0.00 0.00 10 1013.8
20260507081731 18 0.0 0.0 0.00 0.00 0.00 10 1013.9
20260507080726 17 0.0 0.0 0.00 0.00 0.00 10 1013.9
20260507075721 17 0.0 0.0 0.00 0.00 0.00 10 1014.0
20260507074716 16 0.0 0.0 0.00 0.00 0.00 10 1014.1
20260507073710 16 0.0 0.0 0.00 0.00 0.00 10 1014.1
20260507072705 15 0.0 0.0 0.00 0.00 0.00 10 1014.2
20260507070654 14 0.0 0.0 0.00 0.00 0.00 10 1014.2
20260507065649 13 0.0 0.0 0.00 0.00 0.00 10 1014.1
20260507064644 13 0.0 0.0 0.00 0.00 0.00 10 1014.1
20260507063639 12 0.0 0.0 0.00 0.00 0.00 10 1014.1
20260507062633 12 0.0 0.0 0.00 0.00 0.00 10 1014.0
20260507061628 12 0.0 0.0 0.00 0.00 0.00 10 1014.0
20260507060623 12 0.0 0.0 0.00 0.00 0.00 10 1013.9
20260507055617 11 0.0 0.0 0.00 0.00 0.00 10 1013.9
20260507054612 11 0.0 0.0 0.00 0.00 0.00 10 1013.7
20260507053607 10 0.0 0.0 0.00 0.00 0.00 10 1013.8
20260507052601 10 0.0 0.0 0.00 0.00 0.00 10 1013.6
20260507051556 10 0.0 0.0 0.00 0.00 0.00 10 1013.5
20260507050551 10 0.0 0.0 0.00 0.00 0.00 10 1013.4
20260507045546 10 0.0 0.0 0.00 0.00 0.00 10 1013.3
20260507044541 10 0.0 0.0 0.00 0.00 0.00 10 1013.3
20260507043535 9 0.0 0.0 0.00 0.00 0.00 10 1013.3
20260507042530 9 0.0 0.0 0.00 0.00 0.00 10 1013.2
20260507041525 10 0.0 0.0 0.00 0.00 0.00 10 1013.3
20260507040519 9 0.0 0.0 0.00 0.00 0.00 10 1013.3
20260507035514 10 0.0 0.0 0.00 0.00 0.00 10 1013.2
20260507034509 9 0.0 0.0 0.00 0.00 0.00 10 1013.1
20260507033504 10 0.0 0.0 0.00 0.00 0.00 10 1013.0
20260507032459 10 0.0 0.0 0.00 0.00 0.00 10 1012.8
20260507031453 10 0.0 0.0 0.00 0.00 0.00 10 1012.8
20260507030448 11 0.0 0.0 0.00 0.00 0.00 10 1012.9
20260507025443 10 0.0 0.0 0.00 0.00 0.00 10 1012.9
20260507024438 10 0.0 0.0 0.00 0.00 0.00 10 1012.9
20260507023432 10 0.0 0.0 0.00 0.00 0.00 10 1012.8
20260507022427 10 0.0 0.0 0.00 0.00 0.00 10 1012.7
20260507021422 10 0.0 0.0 0.00 0.00 0.00 10 1012.8
20260507020416 10 0.0 0.0 0.00 0.00 0.00 10 1012.5
20260507015411 10 0.0 0.0 0.00 0.00 0.00 10 1012.4
20260507014407 10 0.0 0.0 0.00 0.00 0.00 10 1012.4
20260507013402 10 0.0 0.0 0.00 0.00 0.00 10 1012.2
20260507012356 10 0.0 0.0 0.00 0.00 0.00 10 1012.2
20260507011350 10 0.0 0.0 0.00 0.00 0.00 10 1012.1
20260507010345 11 0.0 0.0 0.00 0.00 0.00 10 1012.3
20260507005340 11 0.0 0.0 0.00 0.00 0.00 10 1012.4
20260507004335 11 0.0 0.0 0.00 0.00 0.00 10 1012.4
20260507003330 11 0.0 0.0 0.00 0.00 0.00 10 1012.3
20260507002323 11 0.0 0.0 0.00 0.00 0.00 10 1012.3
20260507001318 11 0.0 0.0 0.00 0.00 0.00 10 1012.2
20260507000314 12 0.0 0.0 0.00 0.00 0.00 10 1012.1
20260506235307 12 0.0 0.0 0.00 0.00 0.00 10 1012.0
20260506234300 11 0.0 0.0 0.00 0.00 0.00 10 1012.2
20260506233255 11 0.0 0.0 0.00 0.00 0.00 10 1012.2
20260506232248 11 0.0 0.0 0.00 0.00 0.00 10 1012.3
20260506231243 12 0.0 0.0 0.00 0.00 0.00 10 1012.3
20260506230237 12 0.0 0.0 0.00 0.00 0.00 10 1012.3
20260506225232 12 0.0 0.0 0.00 0.00 0.00 10 1012.3
20260506224226 12 0.0 0.0 0.00 0.00 0.00 10 1012.2
20260506223219 12 0.0 0.0 0.00 0.00 0.00 10 1012.2
20260506222214 12 0.0 0.0 0.00 0.00 0.00 10 1012.3
20260506221208 12 0.0 0.0 0.00 0.00 0.00 10 1012.2
20260506220202 12 0.0 0.0 0.00 0.00 0.00 10 1012.2
20260506215156 12 0.0 0.0 0.00 0.00 0.00 10 1012.1
20260506214151 12 0.0 0.0 0.00 0.00 0.00 10 1012.1
20260506213145 12 0.0 0.0 0.00 0.00 0.00 10 1012.1
20260506212140 12 0.0 0.0 0.00 0.00 0.00 10 1012.1
20260506211134 12 0.0 0.0 0.00 0.00 0.00 10 1012.2
20260506210129 12 0.0 0.0 0.00 0.00 0.00 10 1012.2
20260506205124 12 0.0 0.0 0.00 0.00 0.00 10 1012.1
20260506204119 12 0.0 0.0 0.00 0.00 0.00 10 1012.0
20260506203113 13 0.0 0.0 0.00 0.00 0.00 10 1011.9
20260506202109 13 0.0 0.0 0.00 0.00 0.00 10 1011.8
20260506201104 13 0.0 0.0 0.00 0.00 0.00 10 1011.6
20260506200058 13 0.0 0.0 0.00 0.00 0.00 10 1011.4
20260506195053 13 0.0 0.0 0.00 0.00 0.00 10 1011.4
20260506194049 13 0.0 0.0 0.00 0.00 0.00 10 1011.2
20260506193044 13 0.0 0.0 0.00 0.00 0.00 10 1011.1
20260506192039 13 0.0 0.0 0.00 0.00 0.00 10 1010.9
20260506191033 13 0.0 0.0 0.00 0.00 0.00 10 1010.7
20260506190028 13 0.0 0.0 0.00 0.00 0.00 10 1010.4
20260506185023 14 0.0 0.0 0.00 0.00 0.00 10 1010.2
20260506184018 14 0.0 0.0 0.00 0.00 0.00 10 1010.0
20260506183012 14 0.0 0.0 0.00 0.00 0.00 10 1010.0
20260506182008 14 0.0 0.0 0.00 0.00 0.00 10 1010.0
20260506181003 14 0.0 0.0 0.00 0.00 0.00 10 1009.9
20260506175957 15 0.0 0.0 0.00 0.00 0.00 10 1009.8
20260506174952 15 0.0 0.0 0.00 0.00 0.00 10 1009.6
20260506173948 15 0.0 0.0 0.00 0.00 0.00 10 1009.6
20260506172943 15 0.0 0.0 0.00 0.00 0.00 10 1009.5
20260506171937 15 0.0 0.0 0.00 0.00 0.00 10 1009.5
20260506170932 16 0.0 0.0 0.00 0.00 0.00 10 1009.5
20260506165928 16 0.0 0.0 0.00 0.00 0.00 10 1009.4
20260506164923 17 0.0 0.0 0.00 0.00 0.00 89 1009.3
20260506163917 18 0.0 0.0 0.00 0.00 0.00 80 1009.1
20260506162912 18 0.0 0.0 0.00 0.00 0.00 76 1009.2
20260506161907 19 0.0 0.0 0.00 0.00 0.00 76 1009.0
20260506160902 20 0.0 0.0 0.00 0.00 0.00 69 1009.1
20260506160038 20 0.0 0.0 0.00 0.00 0.00 65 1009.0
20260506155857 20 0.0 0.0 0.00 0.00 0.00 65 1009.0
20260506154852 21 0.0 0.0 0.00 0.00 0.00 65 1008.9
20260506153846 21 0.0 0.0 0.00 0.00 0.00 63 1008.8
20260506151835 21 0.0 0.0 0.00 0.00 0.00 67 1008.8
20260506150830 20 0.0 0.0 0.00 0.00 0.00 73 1009.0
20260506145825 21 0.0 0.0 0.00 0.00 0.00 72 1008.9
20260506144821 20 0.0 0.0 0.00 0.00 0.00 70 1008.9
20260506143815 20 0.0 0.0 0.00 0.00 0.00 72 1008.8
20260506142810 21 0.0 0.0 0.00 0.00 0.00 74 1009.1
20260506141805 21 0.0 0.0 0.00 0.00 0.00 71 1009.0
20260506140800 21 0.0 0.0 0.00 0.00 0.00 72 1009.0
20260506135756 21 0.0 0.0 0.00 0.00 0.00 71 1009.1
20260506134750 21 0.0 0.0 0.00 0.00 0.00 68 1009.1
20260506133745 21 0.0 0.0 0.00 0.00 0.00 68 1009.3
20260506132740 22 0.0 0.0 0.00 0.00 0.00 70 1009.3
20260506131734 21 0.0 0.0 0.00 0.00 0.00 69 1009.3
20260506130729 21 0.0 0.0 0.00 0.00 0.00 71 1009.6
20260506125723 21 0.0 0.0 0.00 0.00 0.00 72 1009.5
20260506124718 21 0.0 0.0 0.00 0.00 0.00 76 1009.6
20260506123713 19 0.0 0.0 0.00 0.00 0.00 84 1009.8